Location: Northcutt
(34.7304°N, 84.4305°W)
Time: 08:26:32
(UTC+00:00)

A-11 Canister half - Pass Details

Date: 10 October 2022
Orbit: 1524 x 1685 km, 47.3° (Epoch: 08 December)

Event Time Altitude Azimuth Distance (km) Brightness Sun altitude
Rises 22:49:20 0° 298° (WNW) 4,675 12.5 3.2°
Reaches altitude 10° 22:52:36 10° 305° (NW) 3,697 11.8 2.6°
Maximum altitude 23:01:23 44° 15° (NNE) 2,046 9.6 0.8°
Drops below altitude 10° 23:10:22 10° 86° (E) 3,779 10.4 -1.0°
Enters shadow 23:13:18 - 92° (E) 4,653 10.8 -1.6°
Sets 23:13:44 0° 92° (E) 4,786 - -1.7°
